Regional Weather Roundup
Issued by NWS Burlington, VT

Home | Current Version | Previous Version | Text Only | Print | Product List | Glossary On
Versions: 1 2 3 4 5 6 7 8 9 10 11 12 13 14 15 16 17 18 19 20 21 22 23 24 25 26 27 28 29 30 31 32 33 34 35 36 37 38 39 40 41 42 43 44 45 46 47 48 49 50
000
ASUS41 KBTV 301510
RWRBTV
VERMONT REGIONAL WEATHER ROUNDUP
NATIONAL WEATHER SERVICE BURLINGTON VT
1100 AM EDT WED JUL 30 2014

NOTE: "FAIR" INDICATES FEW OR NO CLOUDS BELOW 12,000 FEET WITH NO
SIGNIFICANT WEATHER AND/OR OBSTRUCTIONS TO VISIBILITY.

* THESE REPORTS ARE NOT UNDER NWS QUALITY CONTROL AND/OR DO NOT
  REPORT WEATHER SUCH AS PRECIPITATION AND FOG.

VTZ001>019-301600-
_____VERMONT_____


CITY           SKY/WX    TMP DP  RH WIND       PRES   REMARKS
BURLINGTON     MOSUNNY   69  55  60 SW5       30.02S
MONTPELIER     SUNNY     61  54  77 CALM      30.08S
MORRISVILLE    SUNNY     69  57  65 CALM      30.04F
ST. JOHNSBURY*   N/A     65  51  60 MISG      30.02F
LYNDONVILLE*   FAIR      65  50  58 W3        30.06F
RUTLAND*       PTSUNNY   66  52  59 W3        30.03S
SPRINGFIELD    CLOUDY    60  56  86 CALM      30.05S
HIGHGATE*      FAIR      68  57  67 W3        30.01S
NEWPORT*         N/A    N/A N/A N/A MISG        N/A
BENNINGTON     CLOUDY    67  57  70 CALM      30.04F

_____LAKE CHAMPLAIN_____


CITY           SKY/WX    TMP DP  RH WIND       PRES   REMARKS
COLCHESTER RF*   N/A     63  57  82 S9          N/A
DIAMOND ISL*     N/A     64  57  77 SW3         N/A

$$

NYZ007-026>031-035-052-083-301600-
_____NORTHERN NEW YORK_____


CITY           SKY/WX    TMP DP  RH WIND       PRES   REMARKS
PLATTSBURGH    MOSUNNY   66  57  72 SE7       30.01S
SARANAC LAKE   MOSUNNY   64  49  57 SW10      30.02S
MASSENA        CLOUDY    70  56  61 SW10      29.99F
OGDENSBURG*    LGT RAIN  63  57  82 SW5       30.00R
POTSDAM*       PTSUNNY   70  57  64 W10       30.00R
WATERTOWN      PTSUNNY   68  54  60 S3        29.99S
FT DRUM        DRIZZLE   64  54  68 S9        30.00S
ALBANY         MOSUNNY   70  54  56 VRB3      30.04S
GLENS FALLS    MOSUNNY   68  55  63 CALM      30.02F

$$
NHZ002-005-011-301600-
_____NEW HAMPSHIRE_____


CITY           SKY/WX    TMP DP  RH WIND       PRES   REMARKS
LEBANON        CLOUDY    64  54  69 CALM      30.03F
KEENE          SUNNY     66  52  59 CALM      30.03F
MT WASHINGTON  FOG       43  37  81 SW3         N/A  VSB 1/2
PLYMOUTH       CLOUDY    66  53  63 W3        30.02F
WHITEFIELD     CLOUDY    67  55  65 CALM      30.04F

$$

_____REGIONAL QUEBEC LOCATIONS_____


CITY           SKY/WX    TMP DP  RH WIND       PRES   REMARKS
MONTREAL       MOSUNNY   68  54  60 SW7       30.00S
QUEBEC CITY    MOSUNNY   68  55  64 VRB5      30.02F
SHERBROOKE     SUNNY     66  54  63 VRB3      30.04S

_____REGIONAL ONTARIO LOCATIONS_____


CITY           SKY/WX    TMP DP  RH WIND       PRES   REMARKS
OTTAWA         MOSUNNY   64  59  82 S9        29.98S

______KEY______
VSB  - VISIBILITY IN MILES
WCI  - WIND CHILL INDEX
HX   - HEAT INDEX
$$
NNNN


USA.gov is the U.S. government's official web portal to all federal, state and local government web resources and services.